Houston, TX

8:25 PM CDT on June 26, 2017 (GMT -0500)
Hobby

Weather History for KHOU - April, 2013

Change the Weather History Date:

Tuesday, April 2, 2013

  Actual Average Record
Temperature  
Mean Temperature 67 °F 66 °F  
Max Temperature 74 °F 77 °F 89 °F (1939)
Min Temperature 59 °F 56 °F 38 °F (1996)
Degree Days  
Heating Degree Days 0 2  
Month to date heating degree days 0 4  
Since 1 July heating degree days 1106 1333  
Cooling Degree Days 2 4  
Month to date cooling degree days 7 8  
Year to date cooling degree days 112 117  
Growing Degree Days 18 (Base 50)    
Moisture  
Dew Point 63 °F    
Average Humidity 83    
Maximum Humidity 100    
Minimum Humidity 66    
Precipitation  
Precipitation 1.46 in 0.10 in 4.75 in (1890)
Month to date precipitation 1.46 0.20  
Year to date precipitation 6.88 10.19  
Sea Level Pressure  
Sea Level Pressure 29.95 in    
Wind  
Wind Speed 8 mph (East)    
Max Wind Speed 32 mph    
Max Gust Speed 38 mph    
Visibility 9 miles    
Events Fog , Rain , Thunderstorm    
T = Trace of Precipitation, MM = Missing Value Source: NWS Daily Summary

Daily Weather History Graph

Daily Weather History Graph

Search for Another Location

Airport or City:

Trip Planner

Search our weather history database for the weather conditions in past years. The results will help you decide how hot, cold, wet, or windy it might be!

Date:

Astronomy

Apr. 02, 2013 Rise Set
Actual Time 7:09 AM CDT 7:40 PM CDT
Civil Twilight 6:45 AM CDT 8:04 PM CDT
Nautical Twilight 6:16 AM CDT 8:32 PM CDT
Astronomical Twilight 5:48 AM CDT 9:01 PM CDT
Moon 1:28 AM CDT (4/2) 12:18 PM CDT (4/2)
Length of Visible Light 13h 19m
Length of Day
12h 31m
Waning Gibbous, 55% of the Moon is Illuminated
Apr 2
Waning Gibbous
Apr 2
Last Quarter
Apr 10
New
Apr 18
First Quarter
Apr 25
Full

Hourly Weather History & Observations

Time (CDT) Temp. Dew Point Humidity Pressure Visibility Wind Dir Wind Speed Gust Speed Precip Events Conditions
12:53 AM 64.0 °F 61.0 °F 90% 30.02 in 10.0 mi South 4.6 mph - N/A   Partly Cloudy
1:53 AM 64.0 °F 61.0 °F 90% 30.02 in 10.0 mi Calm Calm - N/A   Scattered Clouds
2:53 AM 63.0 °F 61.0 °F 93% 30.01 in 9.0 mi East 3.5 mph - N/A   Scattered Clouds
3:53 AM 64.0 °F 61.0 °F 90% 29.99 in 9.0 mi East 3.5 mph - N/A   Mostly Cloudy
4:53 AM 64.0 °F 61.0 °F 90% 29.98 in 10.0 mi ENE 6.9 mph - 0.01 in   Clear
5:53 AM 66.0 °F 61.0 °F 84% 29.97 in 10.0 mi East 6.9 mph - N/A   Mostly Cloudy
6:53 AM 66.0 °F 61.0 °F 84% 29.99 in 10.0 mi ESE 3.5 mph - N/A   Mostly Cloudy
7:53 AM 66.0 °F 62.1 °F 87% 30.00 in 10.0 mi SSE 6.9 mph - 0.00 in   Mostly Cloudy
8:53 AM 68.0 °F 63.0 °F 84% 30.03 in 10.0 mi East 6.9 mph - 0.00 in   Mostly Cloudy
9:53 AM 71.1 °F 64.0 °F 78% 30.02 in 10.0 mi East 10.4 mph - N/A   Mostly Cloudy
10:12 AM 71.6 °F 64.4 °F 78% 30.01 in 10.0 mi Variable 5.8 mph - N/A   Mostly Cloudy
10:19 AM 71.6 °F 64.4 °F 78% 30.00 in 10.0 mi East 9.2 mph - N/A   Mostly Cloudy
10:53 AM 73.0 °F 64.0 °F 73% 30.01 in 10.0 mi East 12.7 mph 18.4 mph N/A   Overcast
11:48 AM 69.8 °F 64.4 °F 83% 30.00 in 10.0 mi ESE 8.1 mph - 0.00 in Rain Light Rain
11:53 AM 69.1 °F 64.0 °F 84% 30.02 in 10.0 mi East 10.4 mph 16.1 mph 0.00 in Rain Light Rain
12:53 PM 70.0 °F 64.0 °F 81% 30.02 in 10.0 mi East 8.1 mph - 0.00 in   Overcast
1:53 PM 69.1 °F 64.0 °F 84% 30.01 in 10.0 mi East 9.2 mph - N/A   Overcast
2:53 PM 71.1 °F 64.0 °F 78% 29.98 in 10.0 mi East 13.8 mph 17.3 mph N/A   Overcast
3:53 PM 70.0 °F 64.0 °F 81% 29.95 in 10.0 mi ESE 11.5 mph - N/A   Overcast
4:53 PM 70.0 °F 64.0 °F 81% 29.92 in 10.0 mi East 11.5 mph - N/A   Overcast
5:53 PM 70.0 °F 63.0 °F 78% 29.90 in 10.0 mi East 13.8 mph 21.9 mph N/A   Overcast
6:30 PM 69.8 °F 62.6 °F 78% 29.88 in 10.0 mi East 16.1 mph 20.7 mph N/A   Overcast
6:53 PM 69.1 °F 63.0 °F 81% 29.89 in 10.0 mi East 13.8 mph 20.7 mph N/A   Overcast
7:37 PM 68.0 °F 62.6 °F 83% 29.87 in 8.0 mi East 10.4 mph 21.9 mph 0.00 in Rain Light Rain
7:53 PM 68.0 °F 64.0 °F 87% 29.88 in 5.0 mi East 10.4 mph - 0.00 in Rain Light Rain
8:39 PM 66.2 °F 64.4 °F 94% 29.87 in 8.0 mi East 13.8 mph 21.9 mph 0.01 in   Overcast
8:48 PM 66.2 °F 64.4 °F 94% 29.86 in 7.0 mi East 12.7 mph 23.0 mph 0.01 in Rain , Thunderstorm Light Thunderstorms and Rain
8:53 PM 66.9 °F 64.9 °F 93% 29.87 in 7.0 mi East 13.8 mph - 0.01 in Rain , Thunderstorm Light Thunderstorms and Rain
9:53 PM 68.0 °F 64.9 °F 90% 29.86 in 6.0 mi East 12.7 mph 21.9 mph 0.01 in Rain , Thunderstorm Light Thunderstorms and Rain
10:46 PM 64.4 °F 62.6 °F 94% 29.95 in 0.8 mi WNW 23.0 mph 41.4 mph 0.22 in Rain , Thunderstorm Heavy Thunderstorms and Rain
10:53 PM 64.0 °F 61.0 °F 90% 29.90 in 0.5 mi NNW 21.9 mph 34.5 mph 0.64 in Fog , Rain , Thunderstorm Heavy Thunderstorms and Rain
11:08 PM 62.6 °F 60.8 °F 94% 29.92 in 2.5 mi NW 15.0 mph - 0.60 in Rain , Thunderstorm Heavy Thunderstorms and Rain
11:53 PM 64.9 °F 62.1 °F 90% 29.90 in 10.0 mi NNE 10.4 mph - 0.89 in Rain Light Rain